Perry, FL

3:01 PM EST on December 15, 2017 (GMT -0500)
Perry

Weather History for K40J - May, 2013

Change the Weather History Date:

Wednesday, May 15, 2013

  Actual Average (KVLD) Record (KVLD)
Temperature  
Mean Temperature 66 °F -  
Max Temperature 84 °F 85 °F 91 °F (2001)
Min Temperature 50 °F 60 °F 50 °F (2002)
Cooling Degree Days 1    
Growing Degree Days 16 (Base 50)    
Moisture  
Dew Point 55 °F    
Average Humidity 72    
Maximum Humidity 100    
Minimum Humidity 37    
Precipitation  
Precipitation 0.02 in - - ()
Sea Level Pressure  
Sea Level Pressure 30.18 in    
Wind  
Wind Speed 2 mph (SW)    
Max Wind Speed 12 mph    
Max Gust Speed 18 mph    
Visibility 9 miles    
Events Fog    
Averages and records for this station are not official NWS values.
T = Trace of Precipitation, MM = Missing Value Source: NWS Daily Summary

Daily Weather History Graph

Daily Weather History Graph

Search for Another Location

Airport or City:

Trip Planner

Search our weather history database for the weather conditions in past years. The results will help you decide how hot, cold, wet, or windy it might be!

Date:

Astronomy

May. 15, 2013 Rise Set
Actual Time 6:40 AM EDT 8:21 PM EDT
Civil Twilight 6:14 AM EDT 8:47 PM EDT
Nautical Twilight 5:42 AM EDT 9:18 PM EDT
Astronomical Twilight 5:09 AM EDT 9:52 PM EDT
Moon 11:11 AM EDT 12:09 AM EDT
Length of Visible Light 14h 32m
Length of Day
13h 40m
Waxing Crescent, 26% of the Moon is Illuminated
May 15
Waxing Crescent
May 18
First Quarter
May 25
Full
May 31
Last Quarter
Jun 8
New

Hourly Weather History & Observations

Time (EDT) Temp. Heat Index Dew Point Humidity Pressure Visibility Wind Dir Wind Speed Gust Speed Precip Events Conditions
12:15 AM 55.4 °F - 51.8 °F 88% 30.22 in 10.0 mi West 4.6 mph - N/A   Clear
12:35 AM 55.4 °F - 50.0 °F 82% 30.22 in 10.0 mi Calm Calm - N/A   Clear
12:53 AM 57.0 °F - 48.9 °F 74% 30.21 in - Calm Calm - N/A   Unknown
12:55 AM 55.4 °F - 50.0 °F 82% 30.22 in 2.0 mi Calm Calm - N/A   Haze
1:15 AM 53.6 °F - 50.0 °F 88% 30.22 in 3.0 mi Calm Calm - N/A   Clear
1:35 AM 53.6 °F - 50.0 °F 88% 30.22 in 10.0 mi Calm Calm - N/A   Clear
1:53 AM 55.0 °F - 51.1 °F 86% 30.20 in - Calm Calm - N/A   Unknown
1:55 AM 53.6 °F - 50.0 °F 88% 30.22 in 10.0 mi Calm Calm - N/A   Clear
2:35 AM 53.6 °F - 51.8 °F 94% 30.20 in 10.0 mi Calm Calm - N/A   Clear
2:53 AM 53.1 °F - 50.0 °F 89% 30.19 in - ESE 4.6 mph - N/A   Unknown
2:55 AM 51.8 °F - 50.0 °F 94% 30.21 in 10.0 mi ESE 4.6 mph - N/A   Clear
3:15 AM 51.8 °F - 50.0 °F 94% 30.20 in 10.0 mi East 3.5 mph - N/A   Clear
3:35 AM 51.8 °F - 50.0 °F 94% 30.20 in 10.0 mi Calm Calm - N/A   Clear
3:53 AM 54.0 °F - 50.0 °F 86% 30.18 in - Calm Calm - N/A   Unknown
3:55 AM 51.8 °F - 50.0 °F 94% 30.20 in 10.0 mi Calm Calm - N/A   Clear
4:15 AM 51.8 °F - 50.0 °F 94% 30.19 in 10.0 mi Calm Calm - N/A   Clear
4:35 AM 51.8 °F - 50.0 °F 94% 30.20 in 10.0 mi Calm Calm - N/A   Clear
4:53 AM 51.1 °F - 48.9 °F 92% 30.19 in - Calm Calm - N/A   Unknown
4:55 AM 51.8 °F - 50.0 °F 94% 30.20 in 7.0 mi Calm Calm - N/A   Clear
5:15 AM 51.8 °F - 50.0 °F 94% 30.20 in 4.0 mi Calm Calm - N/A   Clear
5:35 AM 50.0 °F - 50.0 °F 100% 30.21 in 1.5 mi Calm Calm - N/A   Mist
5:53 AM 51.1 °F - 48.9 °F 92% 30.19 in - Calm Calm - N/A   Unknown
5:55 AM 50.0 °F - 50.0 °F 100% 30.21 in 4.0 mi Calm Calm - N/A   Clear
6:15 AM 50.0 °F - 50.0 °F 100% 30.21 in 3.0 mi Calm Calm - N/A   Clear
6:35 AM 50.0 °F - 50.0 °F 100% 30.22 in 0.5 mi Calm Calm - N/A Fog Fog
6:53 AM 51.1 °F - 48.9 °F 92% 30.21 in - Calm Calm - 0.01 in   Unknown
6:55 AM 50.0 °F - 50.0 °F 100% 30.22 in 1.2 mi Calm Calm - N/A   Mist
7:15 AM 50.0 °F - 50.0 °F 100% 30.23 in 7.0 mi Calm Calm - N/A   Clear
7:35 AM 51.8 °F - 50.0 °F 94% 30.23 in 2.5 mi Calm Calm - N/A   Clear
7:53 AM 57.0 °F - 53.1 °F 87% 30.22 in - Calm Calm - 0.01 in   Unknown
7:55 AM 53.6 °F - 51.8 °F 94% 30.23 in 2.5 mi Calm Calm - N/A   Clear
8:15 AM 55.4 °F - 55.4 °F 100% 30.24 in 3.0 mi Calm Calm - N/A   Clear
8:35 AM 60.8 °F - 59.0 °F 94% 30.24 in 5.0 mi Calm Calm - N/A   Clear
8:53 AM 66.9 °F - 55.9 °F 68% 30.24 in - Calm Calm - N/A   Unknown
8:55 AM 62.6 °F - 59.0 °F 88% 30.25 in 7.0 mi Calm Calm - N/A   Clear
9:15 AM 64.4 °F - 55.4 °F 73% 30.25 in 10.0 mi Calm Calm - N/A   Clear
9:35 AM 68.0 °F - 55.4 °F 64% 30.25 in 10.0 mi Calm Calm - N/A   Clear
9:53 AM 73.0 °F - 55.9 °F 55% 30.24 in - Variable 3.5 mph - N/A   Unknown
9:55 AM 69.8 °F - 55.4 °F 60% 30.25 in 10.0 mi North 3.5 mph - N/A   Clear
10:15 AM 71.6 °F - 57.2 °F 60% 30.25 in 10.0 mi Calm Calm - N/A   Clear
10:35 AM 71.6 °F - 59.0 °F 64% 30.24 in 10.0 mi SSW 4.6 mph - N/A   Clear
10:53 AM 75.9 °F - 61.0 °F 60% 30.24 in - West 3.5 mph - N/A   Unknown
10:55 AM 73.4 °F - 60.8 °F 65% 30.25 in 10.0 mi Calm Calm - N/A   Clear
11:15 AM 73.4 °F - 59.0 °F 61% 30.25 in 10.0 mi Calm Calm - N/A   Clear
11:35 AM 75.2 °F - 55.4 °F 50% 30.24 in 10.0 mi Calm Calm - N/A   Clear
11:53 AM 79.0 °F - 57.9 °F 48% 30.22 in - Variable 4.6 mph - N/A   Unknown
11:55 AM 77.0 °F - 55.4 °F 47% 30.24 in 10.0 mi SW 4.6 mph - N/A   Clear
12:15 PM 77.0 °F - 55.4 °F 47% 30.23 in 10.0 mi NNW 3.5 mph - N/A   Clear
12:35 PM 78.8 °F - 55.4 °F 44% 30.23 in 10.0 mi Calm Calm - N/A   Clear
12:53 PM 81.0 °F 81.0 °F 57.0 °F 44% 30.21 in - South 5.8 mph - N/A   Unknown
12:55 PM 78.8 °F - 55.4 °F 44% 30.22 in 10.0 mi Calm Calm - N/A   Clear
1:15 PM 78.8 °F - 53.6 °F 42% 30.21 in 10.0 mi WSW 5.8 mph - N/A   Clear
1:53 PM 82.0 °F 81.7 °F 57.0 °F 42% 30.18 in - South 3.5 mph - N/A   Unknown
1:55 PM 78.8 °F - 53.6 °F 42% 30.20 in 10.0 mi Calm Calm - N/A   Clear
2:15 PM 80.6 °F 80.3 °F 53.6 °F 39% 30.18 in 10.0 mi NE 5.8 mph - N/A   Clear
2:35 PM 80.6 °F - 51.8 °F 37% 30.17 in 10.0 mi NE 4.6 mph - N/A   Clear
2:53 PM 82.9 °F 82.8 °F 59.0 °F 44% 30.16 in - WNW 4.6 mph - N/A   Unknown
2:55 PM 80.6 °F 80.8 °F 57.2 °F 45% 30.17 in 10.0 mi West 4.6 mph - N/A   Clear
3:15 PM 80.6 °F 81.1 °F 59.0 °F 48% 30.16 in 10.0 mi WSW 11.5 mph - N/A   Clear
3:35 PM 80.6 °F 81.1 °F 59.0 °F 48% 30.16 in 10.0 mi WSW 10.4 mph - N/A   Clear
3:53 PM 81.0 °F 81.6 °F 60.1 °F 49% 30.14 in - West 10.4 mph - N/A   Unknown
3:55 PM 78.8 °F - 59.0 °F 51% 30.15 in 10.0 mi West 11.5 mph 18.4 mph N/A   Clear
4:15 PM 78.8 °F - 59.0 °F 51% 30.14 in 10.0 mi SSW 8.1 mph - N/A   Clear
4:35 PM 78.8 °F - 59.0 °F 51% 30.13 in 10.0 mi SW 6.9 mph - N/A   Clear
4:53 PM 80.1 °F 80.7 °F 59.0 °F 48% 30.11 in - SSW 10.4 mph - N/A   Unknown
4:55 PM 78.8 °F - 59.0 °F 51% 30.13 in 10.0 mi SSW 10.4 mph - N/A   Clear
5:35 PM 78.8 °F - 59.0 °F 51% 30.12 in 10.0 mi SW 11.5 mph - N/A   Clear
5:53 PM 79.0 °F - 57.9 °F 48% 30.10 in - SSW 11.5 mph - N/A   Unknown
5:55 PM 77.0 °F - 57.2 °F 50% 30.12 in 10.0 mi SSW 9.2 mph - N/A   Clear
6:15 PM 77.0 °F - 57.2 °F 50% 30.11 in 10.0 mi SW 11.5 mph - N/A   Clear
6:35 PM 77.0 °F - 57.2 °F 50% 30.11 in 10.0 mi SW 10.4 mph - N/A   Clear
6:53 PM 77.0 °F - 57.9 °F 52% 30.09 in - SW 10.4 mph - N/A   Unknown
6:55 PM 75.2 °F - 57.2 °F 53% 30.11 in 10.0 mi SW 9.2 mph - N/A   Clear
7:15 PM 73.4 °F - 55.4 °F 53% 30.11 in 10.0 mi SW 8.1 mph - N/A   Clear
7:35 PM 73.4 °F - 57.2 °F 57% 30.11 in 10.0 mi SW 8.1 mph - N/A   Clear
7:53 PM 73.0 °F - 59.0 °F 61% 30.10 in - SW 6.9 mph - N/A   Unknown
7:55 PM 71.6 °F - 59.0 °F 64% 30.11 in 10.0 mi SW 6.9 mph - N/A   Clear
8:15 PM 69.8 °F - 59.0 °F 68% 30.11 in 10.0 mi WSW 4.6 mph - N/A   Clear
8:35 PM 68.0 °F - 59.0 °F 73% 30.11 in 10.0 mi Calm Calm - N/A   Clear
8:53 PM 69.1 °F - 59.0 °F 70% 30.10 in - Calm Calm - N/A   Unknown
8:55 PM 68.0 °F - 59.0 °F 73% 30.11 in 10.0 mi Calm Calm - N/A   Clear
9:15 PM 66.2 °F - 59.0 °F 78% 30.11 in 10.0 mi Calm Calm - N/A   Clear
9:35 PM 66.2 °F - 59.0 °F 78% 30.11 in 10.0 mi Calm Calm - N/A   Clear
9:53 PM 66.9 °F - 59.0 °F 76% 30.11 in - Calm Calm - N/A   Unknown
9:55 PM 64.4 °F - 59.0 °F 83% 30.12 in 10.0 mi Calm Calm - N/A   Clear
10:15 PM 64.4 °F - 59.0 °F 83% 30.12 in 10.0 mi Calm Calm - N/A   Clear
10:35 PM 64.4 °F - 59.0 °F 83% 30.12 in 10.0 mi Calm Calm - N/A   Clear
10:53 PM 63.0 °F - 59.0 °F 87% 30.10 in - Calm Calm - N/A   Unknown
10:55 PM 62.6 °F - 59.0 °F 88% 30.12 in 10.0 mi Calm Calm - N/A   Clear
11:15 PM 62.6 °F - 59.0 °F 88% 30.11 in 10.0 mi Calm Calm - N/A   Clear
11:35 PM 60.8 °F - 59.0 °F 94% 30.11 in 10.0 mi Calm Calm - N/A   Clear
11:53 PM 62.1 °F - 57.9 °F 86% 30.10 in - Calm Calm - N/A   Unknown
11:55 PM 60.8 °F - 59.0 °F 94% 30.11 in 10.0 mi Calm Calm - N/A   Clear